Year,Month,Day,Hour,Minute,Value (Times are PST for windspeed in km/hr)
2010,04,03,00,00,31.80
2010,04,03,00,01,27.50
2010,04,03,00,02,24.00
2010,04,03,00,03,23.50
2010,04,03,00,04,32.50
2010,04,03,00,05,41.20
2010,04,03,00,06,24.10
2010,04,03,00,07,33.80
2010,04,03,00,08,31.50
2010,04,03,00,09,25.80
2010,04,03,00,10,26.80
2010,04,03,00,11,26.30
2010,04,03,00,12,29.30
2010,04,03,00,13,28.10
2010,04,03,00,15,28.20
2010,04,03,00,16,24.00
2010,04,03,00,17,35.40
2010,04,03,00,18,32.30
2010,04,03,00,19,24.30
2010,04,03,00,20,24.00
2010,04,03,00,21,24.60
2010,04,03,00,22,19.20
2010,04,03,00,23,19.00
2010,04,03,00,24,18.00
2010,04,03,00,25,23.80
2010,04,03,00,26,26.70
2010,04,03,00,27,23.60
2010,04,03,00,28,20.70
2010,04,03,00,29,31.20
2010,04,03,00,30,29.80
2010,04,03,00,31,28.80
2010,04,03,00,32,25.50
2010,04,03,00,33,30.00
2010,04,03,00,34,27.40
2010,04,03,00,35,29.30
2010,04,03,00,36,35.20
2010,04,03,00,37,43.00
2010,04,03,00,38,32.10
2010,04,03,00,39,23.50
2010,04,03,00,40,16.30
2010,04,03,00,41,27.60
2010,04,03,00,42,19.80
2010,04,03,00,43,10.30
2010,04,03,00,44,17.40
2010,04,03,00,45,11.40
2010,04,03,00,46,15.00
2010,04,03,00,47,31.30
2010,04,03,00,48,19.10
2010,04,03,00,49,22.20
2010,04,03,00,50,22.30
2010,04,03,00,51,25.30
2010,04,03,00,52,18.60
2010,04,03,00,53,18.30
2010,04,03,00,54,22.20
2010,04,03,00,55,21.40
2010,04,03,00,56,28.50
2010,04,03,00,57,25.20
2010,04,03,00,58,22.00
2010,04,03,00,59,22.30
2010,04,03,01,00,19.70
2010,04,03,01,01,24.70
2010,04,03,01,02,25.90
2010,04,03,01,03,29.30
2010,04,03,01,04,23.00
2010,04,03,01,05,17.90
2010,04,03,01,06,17.40
2010,04,03,01,07,18.60
2010,04,03,01,08,18.80
2010,04,03,01,09,17.60
2010,04,03,01,10,17.40
2010,04,03,01,11,18.30
2010,04,03,01,12,19.50
2010,04,03,01,13,20.80
2010,04,03,01,14,21.00
2010,04,03,01,15,16.30
2010,04,03,01,16,20.50
2010,04,03,01,17,10.70
2010,04,03,01,18,16.80
2010,04,03,01,19,13.70
2010,04,03,01,20,14.20
2010,04,03,01,21,17.60
2010,04,03,01,22,14.90
2010,04,03,01,23,18.30
2010,04,03,01,24,19.10
2010,04,03,01,25,10.40
2010,04,03,01,26,20.20
2010,04,03,01,27,16.60
2010,04,03,01,28,16.90
2010,04,03,01,29,20.30
2010,04,03,01,30,21.00
2010,04,03,01,31,19.50
2010,04,03,01,32,29.30
2010,04,03,01,33,26.90
2010,04,03,01,34,24.80
2010,04,03,01,35,28.50
2010,04,03,01,36,29.90
2010,04,03,01,37,30.80
2010,04,03,01,38,22.00
2010,04,03,01,39,34.10
2010,04,03,01,40,33.60
2010,04,03,01,41,27.00
2010,04,03,01,42,18.60
2010,04,03,01,43,28.70
2010,04,03,01,44,38.60
2010,04,03,01,45,25.00
2010,04,03,01,46,27.30
2010,04,03,01,47,22.10
2010,04,03,01,48,18.80
2010,04,03,01,49,19.60
2010,04,03,01,50,18.50
2010,04,03,01,51,23.10
2010,04,03,01,52,33.40
2010,04,03,01,53,30.20
2010,04,03,01,54,36.20
2010,04,03,01,55,34.10
2010,04,03,01,56,33.10
2010,04,03,01,57,20.80
2010,04,03,01,58,26.20
2010,04,03,01,59,22.90
2010,04,03,02,00,27.30
2010,04,03,02,01,36.90
2010,04,03,02,02,23.50
2010,04,03,02,03,18.60
2010,04,03,02,04,20.40
2010,04,03,02,05,28.40
2010,04,03,02,06,20.20
2010,04,03,02,07,20.80
2010,04,03,02,08,23.70
2010,04,03,02,09,28.90
2010,04,03,02,10,20.40
2010,04,03,02,11,22.70
2010,04,03,02,12,29.00
2010,04,03,02,13,23.20
2010,04,03,02,14,28.20
2010,04,03,02,15,31.80
2010,04,03,02,16,34.90
2010,04,03,02,17,33.60
2010,04,03,02,18,22.20
2010,04,03,02,19,30.80
2010,04,03,02,20,26.60
2010,04,03,02,21,18.40
2010,04,03,02,22,27.90
2010,04,03,02,23,27.90
2010,04,03,02,24,29.10
2010,04,03,02,25,28.70
2010,04,03,02,26,26.80
2010,04,03,02,27,26.40
2010,04,03,02,28,29.10
2010,04,03,02,29,33.60
2010,04,03,02,30,36.00
2010,04,03,02,31,24.80
2010,04,03,02,32,36.40
2010,04,03,02,33,20.80
2010,04,03,02,34,19.70
2010,04,03,02,35,14.80
2010,04,03,02,36,15.50
2010,04,03,02,37,15.90
2010,04,03,02,38,26.70
2010,04,03,02,39,28.20
2010,04,03,02,40,24.60
2010,04,03,02,41,29.80
2010,04,03,02,42,22.40
2010,04,03,02,43,25.40
2010,04,03,02,44,35.50
2010,04,03,02,45,33.20
2010,04,03,02,46,28.10
2010,04,03,02,47,27.60
2010,04,03,02,48,25.90
2010,04,03,02,49,25.80
2010,04,03,02,50,28.90
2010,04,03,02,51,24.40
2010,04,03,02,52,19.10
2010,04,03,02,53,19.50
2010,04,03,02,54,22.90
2010,04,03,02,55,13.90
2010,04,03,02,56,15.50
2010,04,03,02,57,13.60
2010,04,03,02,58,18.50
2010,04,03,02,59,15.20
2010,04,03,03,00,11.50
2010,04,03,03,01,23.30
2010,04,03,03,02,15.10
2010,04,03,03,03,13.00
2010,04,03,03,04,20.70
2010,04,03,03,05,15.20
2010,04,03,03,06,25.20
2010,04,03,03,07,26.40
2010,04,03,03,08,27.30
2010,04,03,03,09,25.50
2010,04,03,03,10,21.30
2010,04,03,03,11,24.80
2010,04,03,03,12,29.90
2010,04,03,03,13,28.30
2010,04,03,03,14,24.90
2010,04,03,03,15,28.30
2010,04,03,03,16,25.40
2010,04,03,03,17,28.30
2010,04,03,03,18,20.30
2010,04,03,03,19,21.00
2010,04,03,03,20,26.00
2010,04,03,03,21,24.60
2010,04,03,03,22,19.70
2010,04,03,03,23,23.10
2010,04,03,03,24,24.20
2010,04,03,03,25,29.10
2010,04,03,03,26,32.20
2010,04,03,03,27,27.70
2010,04,03,03,28,29.10
2010,04,03,03,29,21.10
2010,04,03,03,30,26.70
2010,04,03,03,31,29.60
2010,04,03,03,32,23.30
2010,04,03,03,33,22.60
2010,04,03,03,34,20.30
2010,04,03,03,35,17.70
2010,04,03,03,36,20.90
2010,04,03,03,37,18.50
2010,04,03,03,38,21.00
2010,04,03,03,39,24.60
2010,04,03,03,40,17.80
2010,04,03,03,41,11.00
2010,04,03,03,42,16.60
2010,04,03,03,43,13.80
2010,04,03,03,44,9.80
2010,04,03,03,45,12.80
2010,04,03,03,46,13.00
2010,04,03,03,47,14.70
2010,04,03,03,48,13.00
2010,04,03,03,49,15.50
2010,04,03,03,50,13.60
2010,04,03,03,51,10.40
2010,04,03,03,52,13.00
2010,04,03,03,53,11.90
2010,04,03,03,54,22.40
2010,04,03,03,55,20.30
2010,04,03,03,56,16.40
2010,04,03,03,57,20.90
2010,04,03,03,58,19.30
2010,04,03,03,59,22.20
2010,04,03,04,00,28.90
2010,04,03,04,01,22.60
2010,04,03,04,02,24.50
2010,04,03,04,03,20.20
2010,04,03,04,04,17.90
2010,04,03,04,05,13.30
2010,04,03,04,06,15.70
2010,04,03,04,07,16.30
2010,04,03,04,08,13.70
2010,04,03,04,09,13.90
2010,04,03,04,10,12.50
2010,04,03,04,11,17.60
2010,04,03,04,12,16.70
2010,04,03,04,13,20.10
2010,04,03,04,14,14.10
2010,04,03,04,15,15.10
2010,04,03,04,16,9.70
2010,04,03,04,17,13.10
2010,04,03,04,18,11.00
2010,04,03,04,19,11.80
2010,04,03,04,20,10.80
2010,04,03,04,21,13.70
2010,04,03,04,22,7.70
2010,04,03,04,23,12.80
2010,04,03,04,24,15.70
2010,04,03,04,25,16.60
2010,04,03,04,26,23.00
2010,04,03,04,27,18.00
2010,04,03,04,28,17.40
2010,04,03,04,29,14.90
2010,04,03,04,30,17.40
2010,04,03,04,31,14.60
2010,04,03,04,32,15.20
2010,04,03,04,33,12.40
2010,04,03,04,34,14.00
2010,04,03,04,35,13.50
2010,04,03,04,36,12.90
2010,04,03,04,37,13.20
2010,04,03,04,38,6.20
2010,04,03,04,39,10.30
2010,04,03,04,40,11.70
2010,04,03,04,41,13.30
2010,04,03,04,42,21.30
2010,04,03,04,43,19.30
2010,04,03,04,44,12.60
2010,04,03,04,45,17.10
2010,04,03,04,46,22.60
2010,04,03,04,47,14.60
2010,04,03,04,48,15.20
2010,04,03,04,49,18.60
2010,04,03,04,50,19.60
2010,04,03,04,51,23.50
2010,04,03,04,52,24.40
2010,04,03,04,53,21.20
2010,04,03,04,54,17.70
2010,04,03,04,55,24.50
2010,04,03,04,56,14.90
2010,04,03,04,57,19.70
2010,04,03,04,58,22.90
2010,04,03,04,59,28.10
2010,04,03,05,00,25.70
2010,04,03,05,01,29.80
2010,04,03,05,02,27.80
2010,04,03,05,03,21.70
2010,04,03,05,04,23.20
2010,04,03,05,05,24.10
2010,04,03,05,06,21.30
2010,04,03,05,07,23.00
2010,04,03,05,08,14.70
2010,04,03,05,09,18.50
2010,04,03,05,10,10.80
2010,04,03,05,11,14.80
2010,04,03,05,12,13.40
2010,04,03,05,13,14.90
2010,04,03,05,14,16.30
2010,04,03,05,15,16.10
2010,04,03,05,16,11.40
2010,04,03,05,17,17.30
2010,04,03,05,18,16.70
2010,04,03,05,19,18.80
2010,04,03,05,20,15.90
2010,04,03,05,21,18.70
2010,04,03,05,22,11.10
2010,04,03,05,23,14.60
2010,04,03,05,24,16.90
2010,04,03,05,25,24.10
2010,04,03,05,26,15.10
2010,04,03,05,27,17.20
2010,04,03,05,28,18.40
2010,04,03,05,29,14.80
2010,04,03,05,30,20.30
2010,04,03,05,31,17.60
2010,04,03,05,32,18.30
2010,04,03,05,33,12.50
2010,04,03,05,34,11.80
2010,04,03,05,35,16.50
2010,04,03,05,36,15.80
2010,04,03,05,37,24.50
2010,04,03,05,38,15.30
2010,04,03,05,39,24.60
2010,04,03,05,40,16.50
2010,04,03,05,41,19.60
2010,04,03,05,42,19.50
2010,04,03,05,43,17.40
2010,04,03,05,44,20.20
2010,04,03,05,45,14.30
2010,04,03,05,46,20.00
2010,04,03,05,47,25.90
2010,04,03,05,48,26.70
2010,04,03,05,49,28.30
2010,04,03,05,50,24.40
2010,04,03,05,51,21.90
2010,04,03,05,52,26.30
2010,04,03,05,53,15.50
2010,04,03,05,54,17.70
2010,04,03,05,55,20.80
2010,04,03,05,56,19.70
2010,04,03,05,57,27.40
2010,04,03,05,58,22.50
2010,04,03,05,59,23.00
2010,04,03,06,00,23.60
2010,04,03,06,01,17.70
2010,04,03,06,02,15.30
2010,04,03,06,03,9.70
2010,04,03,06,04,24.60
2010,04,03,06,05,16.90
2010,04,03,06,06,18.50
2010,04,03,06,07,21.30
2010,04,03,06,08,22.10
2010,04,03,06,09,17.80
2010,04,03,06,10,16.70
2010,04,03,06,11,19.70
2010,04,03,06,12,16.90
2010,04,03,06,13,16.60
2010,04,03,06,14,13.20
2010,04,03,06,15,11.90
2010,04,03,06,16,8.10
2010,04,03,06,17,13.80
2010,04,03,06,18,12.60
2010,04,03,06,19,12.20
2010,04,03,06,20,21.40
2010,04,03,06,21,10.80
2010,04,03,06,22,10.30
2010,04,03,06,23,8.40
2010,04,03,06,24,11.00
2010,04,03,06,25,12.70
2010,04,03,06,26,9.40
2010,04,03,06,27,8.20
2010,04,03,06,28,8.20
2010,04,03,06,29,9.10
2010,04,03,06,30,8.70
2010,04,03,06,31,13.00
2010,04,03,06,32,7.20
2010,04,03,06,33,11.10
2010,04,03,06,34,7.80
2010,04,03,06,35,9.20
2010,04,03,06,36,10.60
2010,04,03,06,37,12.20
2010,04,03,06,38,10.30
2010,04,03,06,39,13.30
2010,04,03,06,40,7.30
2010,04,03,06,41,8.50
2010,04,03,06,42,12.00
2010,04,03,06,43,9.50
2010,04,03,06,44,11.90
2010,04,03,06,45,10.80
2010,04,03,06,46,15.00
2010,04,03,06,47,10.00
2010,04,03,06,48,12.20
2010,04,03,06,49,9.80
2010,04,03,06,50,10.10
2010,04,03,06,51,10.00
2010,04,03,06,52,7.50
2010,04,03,06,53,6.50
2010,04,03,06,54,9.10
2010,04,03,06,55,7.30
2010,04,03,06,56,8.20
2010,04,03,06,57,11.40
2010,04,03,06,58,7.80
2010,04,03,06,59,11.20
2010,04,03,07,00,6.90
2010,04,03,07,01,13.80
2010,04,03,07,02,11.80
2010,04,03,07,03,16.50
2010,04,03,07,04,13.10
2010,04,03,07,05,16.60
2010,04,03,07,06,16.40
2010,04,03,07,07,15.80
2010,04,03,07,08,10.10
2010,04,03,07,09,10.60
2010,04,03,07,10,14.70
2010,04,03,07,11,16.00
2010,04,03,07,12,15.00
2010,04,03,07,13,23.20
2010,04,03,07,14,18.80
2010,04,03,07,15,17.30
2010,04,03,07,16,19.10
2010,04,03,07,17,20.60
2010,04,03,07,18,20.50
2010,04,03,07,19,18.60
2010,04,03,07,20,11.00
2010,04,03,07,21,12.60
2010,04,03,07,22,11.80
2010,04,03,07,23,17.80
2010,04,03,07,24,16.80
2010,04,03,07,25,23.90
2010,04,03,07,26,18.70
2010,04,03,07,27,23.40
2010,04,03,07,28,20.30
2010,04,03,07,29,18.30
2010,04,03,07,30,19.60
2010,04,03,07,31,17.70
2010,04,03,07,32,23.40
2010,04,03,07,33,13.60
2010,04,03,07,34,22.60
2010,04,03,07,35,15.20
2010,04,03,07,36,24.10
2010,04,03,07,37,28.90
2010,04,03,07,38,23.80
2010,04,03,07,39,34.60
2010,04,03,07,40,15.80
2010,04,03,07,41,35.60
2010,04,03,07,42,29.80
2010,04,03,07,43,23.10
2010,04,03,07,44,23.30
2010,04,03,07,45,22.20
2010,04,03,07,46,32.50
2010,04,03,07,47,27.20
2010,04,03,07,48,23.50
2010,04,03,07,49,23.60
2010,04,03,07,50,17.10
2010,04,03,07,51,19.00
2010,04,03,07,52,14.70
2010,04,03,07,53,10.60
2010,04,03,07,54,10.70
2010,04,03,07,55,15.70
2010,04,03,07,56,14.60
2010,04,03,07,57,10.00
2010,04,03,07,58,4.50
2010,04,03,07,59,14.40
2010,04,03,08,00,8.20
2010,04,03,08,01,8.30
2010,04,03,08,02,10.70
2010,04,03,08,03,13.20
2010,04,03,08,04,9.80
2010,04,03,08,05,8.00
2010,04,03,08,06,7.00
2010,04,03,08,07,10.30
2010,04,03,08,08,11.00
2010,04,03,08,09,7.10
2010,04,03,08,10,12.90
2010,04,03,08,11,8.80
2010,04,03,08,12,11.50
2010,04,03,08,13,8.50
2010,04,03,08,14,12.10
2010,04,03,08,15,11.00
2010,04,03,08,16,7.80
2010,04,03,08,17,6.50
2010,04,03,08,18,7.50
2010,04,03,08,19,5.20
2010,04,03,08,20,8.20
2010,04,03,08,21,8.50
2010,04,03,08,22,5.30
2010,04,03,08,23,7.40
2010,04,03,08,24,4.90
2010,04,03,08,25,4.30
2010,04,03,08,26,8.00
2010,04,03,08,27,10.50
2010,04,03,08,28,8.10
2010,04,03,08,29,7.90
2010,04,03,08,30,8.70
2010,04,03,08,31,3.60
2010,04,03,08,32,5.80
2010,04,03,08,33,5.80
2010,04,03,08,34,14.10
2010,04,03,08,35,16.60
2010,04,03,08,36,9.60
2010,04,03,08,37,6.30
2010,04,03,08,38,8.70
2010,04,03,08,39,14.70
2010,04,03,08,40,11.60
2010,04,03,08,41,13.30
2010,04,03,08,42,14.30
2010,04,03,08,43,16.70
2010,04,03,08,44,18.80
2010,04,03,08,45,12.30
2010,04,03,08,46,13.40
2010,04,03,08,47,15.20
2010,04,03,08,48,16.80
2010,04,03,08,49,18.70
2010,04,03,08,50,6.40
2010,04,03,08,51,13.60
2010,04,03,08,52,10.30
2010,04,03,08,53,6.60
2010,04,03,08,54,13.00
2010,04,03,08,55,16.60
2010,04,03,08,56,24.50
2010,04,03,08,57,19.30
2010,04,03,08,58,18.10
2010,04,03,08,59,15.40
2010,04,03,09,00,21.80
2010,04,03,09,01,13.40
2010,04,03,09,02,15.80
2010,04,03,09,03,20.30
2010,04,03,09,04,22.10
2010,04,03,09,05,21.00
2010,04,03,09,06,15.80
2010,04,03,09,07,17.20
2010,04,03,09,08,17.00
2010,04,03,09,09,19.60
2010,04,03,09,10,13.80
2010,04,03,09,11,11.00
2010,04,03,09,12,18.40
2010,04,03,09,13,18.80
2010,04,03,09,14,21.00
2010,04,03,09,15,16.30
2010,04,03,09,16,11.20
2010,04,03,09,17,12.90
2010,04,03,09,18,9.70
2010,04,03,09,19,9.70
2010,04,03,09,20,15.20
2010,04,03,09,21,11.90
2010,04,03,09,22,14.40
2010,04,03,09,23,16.30
2010,04,03,09,24,11.90
2010,04,03,09,25,6.50
2010,04,03,09,26,10.70
2010,04,03,09,27,11.60
2010,04,03,09,28,14.20
2010,04,03,09,29,8.20
2010,04,03,09,30,6.70
2010,04,03,09,31,12.50
2010,04,03,09,32,10.20
2010,04,03,09,33,10.00
2010,04,03,09,34,6.20
2010,04,03,09,35,7.30
2010,04,03,09,36,7.50
2010,04,03,09,37,6.60
2010,04,03,09,38,10.30
2010,04,03,09,39,16.00
2010,04,03,09,40,8.40
2010,04,03,09,41,12.40
2010,04,03,09,42,12.60
2010,04,03,09,43,14.90
2010,04,03,09,44,12.60
2010,04,03,09,45,11.30
2010,04,03,09,46,8.20
2010,04,03,09,47,10.00
2010,04,03,09,48,5.10
2010,04,03,09,49,6.90
2010,04,03,09,50,6.80
2010,04,03,09,51,7.80
2010,04,03,09,52,8.40
2010,04,03,09,53,14.30
2010,04,03,09,54,15.80
2010,04,03,09,55,15.10
2010,04,03,09,56,13.80
2010,04,03,09,57,13.60
2010,04,03,09,58,16.90
2010,04,03,09,59,10.10
2010,04,03,10,00,9.20
2010,04,03,10,01,11.60
2010,04,03,10,02,6.50
2010,04,03,10,03,7.00
2010,04,03,10,04,8.40
2010,04,03,10,05,10.80
2010,04,03,10,06,10.60
2010,04,03,10,07,9.30
2010,04,03,10,08,4.50
2010,04,03,10,09,3.20
2010,04,03,10,10,2.60
2010,04,03,10,11,7.10
2010,04,03,10,12,7.50
2010,04,03,10,13,8.10
2010,04,03,10,14,11.30
2010,04,03,10,15,7.50
2010,04,03,10,16,6.90
2010,04,03,10,17,6.00
2010,04,03,10,18,7.50
2010,04,03,10,19,6.40
2010,04,03,10,20,5.80
2010,04,03,10,21,3.20
2010,04,03,10,22,3.00
2010,04,03,10,23,4.70
2010,04,03,10,24,1.90
2010,04,03,10,25,4.00
2010,04,03,10,26,5.80
2010,04,03,10,27,4.90
2010,04,03,10,28,3.30
2010,04,03,10,29,5.20
2010,04,03,10,30,2.50
2010,04,03,10,31,1.60
2010,04,03,10,32,1.40
2010,04,03,10,33,0.80
2010,04,03,10,34,3.70
2010,04,03,10,35,5.90
2010,04,03,10,36,2.10
2010,04,03,10,37,2.40
2010,04,03,10,38,4.30
2010,04,03,10,39,11.60
2010,04,03,10,40,5.60
2010,04,03,10,41,5.80
2010,04,03,10,42,2.80
2010,04,03,10,43,1.80
2010,04,03,10,44,2.80
2010,04,03,10,45,6.60
2010,04,03,10,46,3.80
2010,04,03,10,47,2.50
2010,04,03,10,48,4.10
2010,04,03,10,49,5.30
2010,04,03,10,50,5.10
2010,04,03,10,51,4.60
2010,04,03,10,52,3.00
2010,04,03,10,53,2.80
2010,04,03,10,54,4.70
2010,04,03,10,55,4.00
2010,04,03,10,56,0.60
2010,04,03,10,57,3.00
2010,04,03,10,58,7.10
2010,04,03,10,59,6.40
2010,04,03,11,00,5.10
2010,04,03,11,01,3.50
2010,04,03,11,02,9.30
2010,04,03,11,03,6.80
2010,04,03,11,04,6.70
2010,04,03,11,05,7.00
2010,04,03,11,06,5.40
2010,04,03,11,07,5.80
2010,04,03,11,08,4.40
2010,04,03,11,09,4.20
2010,04,03,11,10,4.70
2010,04,03,11,11,3.10
2010,04,03,11,12,4.60
2010,04,03,11,13,4.30
2010,04,03,11,14,3.10
2010,04,03,11,15,3.10
2010,04,03,11,16,3.20
2010,04,03,11,17,0.30
2010,04,03,11,18,2.30
2010,04,03,11,19,2.90
2010,04,03,11,20,3.50
2010,04,03,11,21,0.70
2010,04,03,11,22,3.20
2010,04,03,11,23,1.60
2010,04,03,11,24,1.70
2010,04,03,11,25,4.00
2010,04,03,11,26,0.40
2010,04,03,11,27,0.10
2010,04,03,11,28,0.90
2010,04,03,11,29,0.00
2010,04,03,11,30,0.00
2010,04,03,11,31,0.00
2010,04,03,11,32,1.00
2010,04,03,11,33,5.60
2010,04,03,11,34,5.70
2010,04,03,11,35,4.70
2010,04,03,11,36,4.50
2010,04,03,11,37,6.80
2010,04,03,11,38,10.00
2010,04,03,11,39,6.40
2010,04,03,11,40,4.70
2010,04,03,11,41,8.00
2010,04,03,11,42,3.80
2010,04,03,11,43,11.80
2010,04,03,11,44,12.10
2010,04,03,11,45,9.50
2010,04,03,11,46,9.80
2010,04,03,11,47,6.20
2010,04,03,11,48,7.10
2010,04,03,11,49,2.80
2010,04,03,11,50,8.90
2010,04,03,11,51,11.80
2010,04,03,11,52,13.80
2010,04,03,11,53,8.40
2010,04,03,11,54,8.10
2010,04,03,11,55,7.00
2010,04,03,11,56,12.00
2010,04,03,11,57,11.80
2010,04,03,11,58,11.80
2010,04,03,11,59,7.00
2010,04,03,12,00,7.70
2010,04,03,12,01,5.80
2010,04,03,12,02,5.80
2010,04,03,12,03,7.20
2010,04,03,12,04,8.30
2010,04,03,12,05,6.80
2010,04,03,12,06,10.70
2010,04,03,12,07,8.70
2010,04,03,12,08,9.90
2010,04,03,12,09,11.40
2010,04,03,12,10,15.00
2010,04,03,12,11,9.30
2010,04,03,12,12,8.70
2010,04,03,12,13,11.30
2010,04,03,12,14,10.30
2010,04,03,12,15,10.70
2010,04,03,12,16,9.90
2010,04,03,12,17,9.20
2010,04,03,12,18,14.70
2010,04,03,12,19,18.00
2010,04,03,12,20,22.20
2010,04,03,12,21,17.50
2010,04,03,12,22,17.40
2010,04,03,12,23,21.70
2010,04,03,12,24,20.40
2010,04,03,12,25,17.30
2010,04,03,12,26,17.40
2010,04,03,12,27,13.50
2010,04,03,12,28,16.80
2010,04,03,12,29,18.00
2010,04,03,12,30,11.30
2010,04,03,12,31,11.90
2010,04,03,12,32,14.10
2010,04,03,12,33,12.50
2010,04,03,12,34,7.70
2010,04,03,12,35,15.70
2010,04,03,12,36,11.00
2010,04,03,12,37,8.40
2010,04,03,12,38,11.90
2010,04,03,12,39,14.50
2010,04,03,12,40,8.10
2010,04,03,12,41,10.80
2010,04,03,12,42,16.30
2010,04,03,12,43,9.30
2010,04,03,12,44,13.00
2010,04,03,12,45,21.90
2010,04,03,12,46,16.90
2010,04,03,12,47,16.80
2010,04,03,12,48,12.50
2010,04,03,12,49,15.20
2010,04,03,12,50,15.80
2010,04,03,12,51,13.60
2010,04,03,12,52,16.00
2010,04,03,12,53,13.10
2010,04,03,12,54,18.50
2010,04,03,12,55,16.70
2010,04,03,12,56,21.30
2010,04,03,12,57,21.30
2010,04,03,12,58,18.10
2010,04,03,12,59,18.40
2010,04,03,13,00,16.90
2010,04,03,13,01,18.10
2010,04,03,13,02,17.60
2010,04,03,13,03,15.40
2010,04,03,13,04,14.50
2010,04,03,13,05,14.60
2010,04,03,13,06,18.20
2010,04,03,13,07,14.00
2010,04,03,13,08,15.30
2010,04,03,13,09,15.90
2010,04,03,13,10,13.10
2010,04,03,13,11,17.60
2010,04,03,13,12,15.10
2010,04,03,13,13,22.20
2010,04,03,13,14,13.30
2010,04,03,13,15,16.30
2010,04,03,13,16,17.70
2010,04,03,13,17,18.20
2010,04,03,13,18,15.20
2010,04,03,13,19,19.00
2010,04,03,13,20,17.20
2010,04,03,13,21,18.30
2010,04,03,13,22,20.70
2010,04,03,13,23,16.60
2010,04,03,13,24,17.60
2010,04,03,13,25,19.80
2010,04,03,13,26,15.10
2010,04,03,13,27,19.70
2010,04,03,13,28,18.40
2010,04,03,13,29,11.80
2010,04,03,13,30,15.20
2010,04,03,13,31,19.30
2010,04,03,13,32,20.00
2010,04,03,13,33,9.60
2010,04,03,13,34,8.10
2010,04,03,13,35,7.80
2010,04,03,13,36,12.30
2010,04,03,13,37,19.70
2010,04,03,13,38,21.30
2010,04,03,13,39,16.50
2010,04,03,13,40,15.60
2010,04,03,13,41,15.70
2010,04,03,13,42,19.20
2010,04,03,13,43,20.80
2010,04,03,13,44,17.00
2010,04,03,13,45,12.20
2010,04,03,13,46,15.20
2010,04,03,13,47,19.40
2010,04,03,13,48,20.80
2010,04,03,13,49,18.80
2010,04,03,13,50,21.60
2010,04,03,13,51,21.10
2010,04,03,13,52,16.90
2010,04,03,13,53,18.90
2010,04,03,13,54,15.00
2010,04,03,13,55,17.10
2010,04,03,13,56,9.50
2010,04,03,13,57,5.40
2010,04,03,13,58,9.10
2010,04,03,13,59,10.40
2010,04,03,14,00,8.80
2010,04,03,14,01,15.20
2010,04,03,14,02,12.20
2010,04,03,14,03,13.40
2010,04,03,14,04,9.00
2010,04,03,14,05,6.40
2010,04,03,14,06,10.40
2010,04,03,14,07,10.10
2010,04,03,14,08,8.00
2010,04,03,14,09,6.50
2010,04,03,14,10,5.70
2010,04,03,14,11,8.60
2010,04,03,14,12,7.90
2010,04,03,14,13,6.00
2010,04,03,14,14,4.90
2010,04,03,14,15,3.80
2010,04,03,14,16,6.10
2010,04,03,14,17,3.60
2010,04,03,14,18,9.70
2010,04,03,14,19,6.50
2010,04,03,14,20,5.50
2010,04,03,14,21,6.80
2010,04,03,14,22,9.80
2010,04,03,14,23,9.30
2010,04,03,14,24,10.50
2010,04,03,14,25,6.00
2010,04,03,14,26,3.50
2010,04,03,14,27,6.40
2010,04,03,14,28,6.70
2010,04,03,14,29,9.50
2010,04,03,14,30,6.00
2010,04,03,14,31,3.50
2010,04,03,14,32,5.20
2010,04,03,14,33,6.10
2010,04,03,14,34,6.80
2010,04,03,14,35,5.00
2010,04,03,14,36,6.40
2010,04,03,14,37,2.50
2010,04,03,14,38,5.90
2010,04,03,14,39,6.00
2010,04,03,14,40,2.40
2010,04,03,14,41,6.10
2010,04,03,14,42,2.80
2010,04,03,14,43,5.30
2010,04,03,14,44,11.40
2010,04,03,14,45,8.50
2010,04,03,14,46,7.80
2010,04,03,14,47,1.70
2010,04,03,14,48,3.60
2010,04,03,14,49,3.50
2010,04,03,14,50,14.00
2010,04,03,14,51,6.80
2010,04,03,14,52,8.80
2010,04,03,14,53,9.70
2010,04,03,14,54,8.60
2010,04,03,14,55,5.30
2010,04,03,14,56,4.20
2010,04,03,14,57,7.90
2010,04,03,14,58,7.60
2010,04,03,14,59,11.30
2010,04,03,15,00,16.30
2010,04,03,15,01,12.00
2010,04,03,15,02,10.80
2010,04,03,15,03,9.10
2010,04,03,15,04,13.80
2010,04,03,15,05,12.40
2010,04,03,15,06,14.60
2010,04,03,15,07,5.80
2010,04,03,15,08,18.10
2010,04,03,15,09,13.60
2010,04,03,15,10,7.80
2010,04,03,15,11,9.40
2010,04,03,15,12,11.90
2010,04,03,15,13,9.40
2010,04,03,15,14,7.50
2010,04,03,15,15,5.50
2010,04,03,15,16,6.50
2010,04,03,15,17,16.30
2010,04,03,15,18,14.60
2010,04,03,15,19,11.30
2010,04,03,15,20,14.60
2010,04,03,15,21,11.40
2010,04,03,15,22,14.90
2010,04,03,15,23,10.30
2010,04,03,15,24,9.70
2010,04,03,15,25,10.60
2010,04,03,15,26,8.50
2010,04,03,15,27,6.80
2010,04,03,15,28,2.80
2010,04,03,15,29,11.90
2010,04,03,15,30,11.50
2010,04,03,15,31,8.90
2010,04,03,15,32,8.20
2010,04,03,15,33,10.10
2010,04,03,15,34,6.40
2010,04,03,15,35,5.20
2010,04,03,15,36,9.80
2010,04,03,15,37,15.10
2010,04,03,15,38,10.90
2010,04,03,15,39,3.00
2010,04,03,15,40,5.10
2010,04,03,15,41,8.10
2010,04,03,15,42,9.30
2010,04,03,15,43,16.20
2010,04,03,15,44,8.30
2010,04,03,15,45,8.40
2010,04,03,15,46,11.60
2010,04,03,15,47,11.90
2010,04,03,15,48,10.20
2010,04,03,15,49,7.50
2010,04,03,15,50,6.40
2010,04,03,15,51,4.90
2010,04,03,15,52,6.20
2010,04,03,15,53,1.60
2010,04,03,15,54,4.20
2010,04,03,15,55,2.70
2010,04,03,15,56,0.10
2010,04,03,15,57,3.00
2010,04,03,15,58,6.80
2010,04,03,15,59,11.40
2010,04,03,16,00,14.70
2010,04,03,16,01,15.80
2010,04,03,16,02,10.30
2010,04,03,16,03,7.80
2010,04,03,16,04,9.20
2010,04,03,16,05,9.10
2010,04,03,16,06,12.20
2010,04,03,16,07,7.90
2010,04,03,16,08,11.90
2010,04,03,16,09,15.50
2010,04,03,16,10,11.30
2010,04,03,16,11,11.70
2010,04,03,16,12,8.00
2010,04,03,16,13,6.60
2010,04,03,16,14,6.90
2010,04,03,16,15,9.20
2010,04,03,16,16,7.20
2010,04,03,16,17,10.40
2010,04,03,16,18,9.10
2010,04,03,16,19,9.70
2010,04,03,16,20,11.30
2010,04,03,16,21,9.70
2010,04,03,16,22,11.00
2010,04,03,16,23,10.20
2010,04,03,16,24,5.40
2010,04,03,16,25,2.50
2010,04,03,16,26,2.80
2010,04,03,16,27,5.70
2010,04,03,16,28,4.70
2010,04,03,16,29,5.20
2010,04,03,16,30,3.50
2010,04,03,16,31,6.40
2010,04,03,16,32,7.80
2010,04,03,16,33,8.00
2010,04,03,16,34,7.80
2010,04,03,16,35,9.60
2010,04,03,16,36,15.80
2010,04,03,16,37,9.10
2010,04,03,16,38,6.10
2010,04,03,16,39,10.40
2010,04,03,16,40,11.70
2010,04,03,16,41,6.60
2010,04,03,16,42,10.50
2010,04,03,16,43,5.80
2010,04,03,16,44,7.70
2010,04,03,16,45,10.30
2010,04,03,16,46,11.40
2010,04,03,16,47,8.40
2010,04,03,16,48,9.50
2010,04,03,16,49,8.20
2010,04,03,16,50,7.20
2010,04,03,16,51,5.30
2010,04,03,16,52,9.20
2010,04,03,16,53,6.90
2010,04,03,16,54,7.50
2010,04,03,16,55,11.70
2010,04,03,16,56,9.40
2010,04,03,16,57,7.60
2010,04,03,16,58,9.40
2010,04,03,16,59,7.20
2010,04,03,17,00,14.30
2010,04,03,17,01,9.40
2010,04,03,17,02,10.00
2010,04,03,17,03,10.40
2010,04,03,17,04,9.50
2010,04,03,17,05,5.80
2010,04,03,17,06,7.70
2010,04,03,17,07,6.40
2010,04,03,17,08,5.00
2010,04,03,17,09,6.40
2010,04,03,17,10,6.70
2010,04,03,17,11,4.10
2010,04,03,17,12,4.20
2010,04,03,17,13,6.10
2010,04,03,17,14,5.40
2010,04,03,17,15,5.60
2010,04,03,17,16,10.10
2010,04,03,17,17,6.40
2010,04,03,17,18,8.50
2010,04,03,17,19,10.60
2010,04,03,17,20,9.70
2010,04,03,17,21,7.80
2010,04,03,17,22,6.90
2010,04,03,17,23,6.60
2010,04,03,17,24,5.00
2010,04,03,17,25,7.40
2010,04,03,17,26,6.20
2010,04,03,17,27,5.80
2010,04,03,17,28,9.30
2010,04,03,17,29,7.50
2010,04,03,17,30,4.60
2010,04,03,17,31,5.70
2010,04,03,17,32,4.50
2010,04,03,17,33,7.10
2010,04,03,17,34,8.00
2010,04,03,17,35,7.00